Weather History for Pinedale, WY

Change the Weather History Date:

Thursday, April 4, 2013

  Actual Average (KBPI) Record (KBPI)
Temperature  
Mean Temperature 41 °F 34 °F  
Max Temperature 59 °F 49 °F 66 °F (2000)
Min Temperature 23 °F 19 °F 4 °F (1999)
Degree Days  
Heating Degree Days 24 31  
Month to date heating degree days 125  
Since 1 July heating degree days 8820  
Cooling Degree Days 0 0  
Month to date cooling degree days 0  
Year to date cooling degree days 0  
Moisture  
Dew Point 25 °F    
Average Humidity 61    
Maximum Humidity 100    
Minimum Humidity 25    
Precipitation  
Precipitation 0.00 in 0.01 in 0.07 in (1989)
Month to date precipitation 0.06  
Year to date precipitation 1.16  
Sea Level Pressure  
Sea Level Pressure 30.14 in    
Wind  
Wind Speed 5 mph (West)    
Max Wind Speed 17 mph    
Max Gust Speed 29 mph    
Visibility 10 miles    
Events      
T = Trace of Precipitation, MM = Missing Value Source: NWS Daily Summary

Daily Weather History Graph

Daily Weather History Graph

Search for Another Location

Airport:

Trip Planner

Search our weather history database for the weather conditions in past years. The results will help you decide how hot, cold, wet, or windy it might be!

Date:

Astronomy

Apr. 04, 2013 Rise Set
Actual Time 6:55 AM MDT 7:49 PM MDT
Civil Twilight 6:26 AM MDT 8:18 PM MDT
Nautical Twilight 5:52 AM MDT 8:52 PM MDT
Astronomical Twilight 5:17 AM MDT 9:27 PM MDT
Moon 3:32 AM MDT (4/4) 2:03 PM MDT (4/4)
Length of Visible Light 13h 51m
Length of Day
12h 53m
Waning Crescent, 33% of the Moon is Illuminated
Apr 4
Waning Crescent
Apr 10
New
Apr 18
First Quarter
Apr 25
Full
May 2
Last Quarter

Hourly Weather History & Observations

Time (MDT) Temp. Windchill Dew Point Humidity Pressure Visibility Wind Dir Wind Speed Gust Speed Precip Events Conditions
12:15 AM 28.4 °F 23.3 °F 23.0 °F 80% 30.21 in 10.0 mi West 4.6 mph - N/A   Mostly Cloudy
12:35 AM 28.4 °F - 24.8 °F 86% 30.21 in 10.0 mi Calm Calm - N/A   Mostly Cloudy
12:55 AM 32.0 °F 27.5 °F 24.8 °F 75% 30.21 in 10.0 mi NNW 4.6 mph - N/A   Mostly Cloudy
1:15 AM 30.2 °F - 23.0 °F 75% 30.22 in 10.0 mi Calm Calm - N/A   Scattered Clouds
1:35 AM 28.4 °F 23.3 °F 23.0 °F 80% 30.22 in 10.0 mi West 4.6 mph - N/A   Scattered Clouds
1:55 AM 26.6 °F 21.2 °F 23.0 °F 86% 30.22 in 10.0 mi WNW 4.6 mph - N/A   Scattered Clouds
2:15 AM 28.4 °F 23.3 °F 24.8 °F 86% 30.21 in 10.0 mi NW 4.6 mph - N/A   Mostly Cloudy
2:35 AM 28.4 °F - 23.0 °F 80% 30.21 in 10.0 mi Calm Calm - N/A   Mostly Cloudy
2:55 AM 26.6 °F 21.2 °F 23.0 °F 86% 30.21 in 10.0 mi WNW 4.6 mph - N/A   Mostly Cloudy
3:15 AM 26.6 °F 20.0 °F 23.0 °F 86% 30.21 in 10.0 mi West 5.8 mph - N/A   Mostly Cloudy
3:35 AM 24.8 °F 17.9 °F 23.0 °F 93% 30.21 in 10.0 mi West 5.8 mph - N/A   Scattered Clouds
3:55 AM 24.8 °F 17.9 °F 23.0 °F 93% 30.21 in 10.0 mi NW 5.8 mph - N/A   Clear
4:15 AM 26.6 °F 20.0 °F 23.0 °F 86% 30.21 in 10.0 mi NW 5.8 mph - N/A   Clear
4:35 AM 23.0 °F 17.0 °F 23.0 °F 100% 30.21 in 10.0 mi WNW 4.6 mph - N/A   Scattered Clouds
4:55 AM 23.0 °F 15.8 °F 23.0 °F 100% 30.21 in 10.0 mi NW 5.8 mph - N/A   Mostly Cloudy
5:15 AM 23.0 °F 17.0 °F 23.0 °F 100% 30.21 in 10.0 mi NW 4.6 mph - N/A   Scattered Clouds
5:35 AM 23.0 °F 18.4 °F 21.2 °F 93% 30.20 in 10.0 mi NW 3.5 mph - N/A   Clear
5:55 AM 23.0 °F 17.0 °F 23.0 °F 100% 30.20 in 10.0 mi West 4.6 mph - N/A   Clear
6:15 AM 23.0 °F 17.0 °F 23.0 °F 100% 30.19 in 10.0 mi West 4.6 mph - N/A   Clear
6:35 AM 23.0 °F 17.0 °F 23.0 °F 100% 30.20 in 10.0 mi West 4.6 mph - N/A   Clear
6:55 AM 24.8 °F - 23.0 °F 93% 30.20 in 10.0 mi Calm Calm - N/A   Scattered Clouds
7:15 AM 24.8 °F 19.1 °F 23.0 °F 93% 30.21 in 10.0 mi WNW 4.6 mph - N/A   Scattered Clouds
7:35 AM 23.0 °F 18.4 °F 23.0 °F 100% 30.21 in 10.0 mi West 3.5 mph - N/A   Scattered Clouds
7:55 AM 26.6 °F 21.2 °F 24.8 °F 93% 30.21 in 10.0 mi NW 4.6 mph - N/A   Scattered Clouds
8:15 AM 28.4 °F - 26.6 °F 93% 30.21 in 10.0 mi Calm Calm - N/A   Overcast
8:35 AM 30.2 °F - 28.4 °F 93% 30.21 in 10.0 mi Calm Calm - N/A   Overcast
8:55 AM 32.0 °F - 28.4 °F 87% 30.21 in 10.0 mi Calm Calm - N/A   Overcast
9:15 AM 35.6 °F 32.8 °F 28.4 °F 75% 30.21 in 10.0 mi East 3.5 mph - N/A   Overcast
9:35 AM 37.4 °F 33.8 °F 28.4 °F 70% 30.21 in 10.0 mi East 4.6 mph - N/A   Overcast
9:55 AM 37.4 °F 34.9 °F 28.4 °F 70% 30.20 in 10.0 mi ESE 3.5 mph - N/A   Mostly Cloudy
10:35 AM 44.6 °F 41.4 °F 30.2 °F 57% 30.19 in 10.0 mi ESE 5.8 mph - N/A   Clear
10:55 AM 46.4 °F 42.9 °F 30.2 °F 53% 30.19 in 10.0 mi East 6.9 mph - N/A   Scattered Clouds
11:15 AM 46.4 °F 42.9 °F 30.2 °F 53% 30.19 in 10.0 mi ENE 6.9 mph - N/A   Clear
11:35 AM 50.0 °F - 30.2 °F 47% 30.19 in 10.0 mi East 6.9 mph - N/A   Clear
11:55 AM 50.0 °F - 30.2 °F 47% 30.18 in 10.0 mi East 4.6 mph - N/A   Clear
12:15 PM 51.8 °F - 30.2 °F 44% 30.17 in 10.0 mi SW 4.6 mph - N/A   Clear
12:35 PM 51.8 °F - 28.4 °F 41% 30.16 in 10.0 mi West 4.6 mph - N/A   Mostly Cloudy
12:55 PM 51.8 °F - 28.4 °F 41% 30.15 in 10.0 mi Calm Calm - N/A   Overcast
1:15 PM 53.6 °F - 26.6 °F 35% 30.14 in 10.0 mi WSW 8.1 mph - N/A   Overcast
1:35 PM 53.6 °F - 26.6 °F 35% 30.13 in 10.0 mi Calm Calm - N/A   Mostly Cloudy
1:55 PM 53.6 °F - 26.6 °F 35% 30.11 in 10.0 mi SW 6.9 mph - N/A   Mostly Cloudy
2:15 PM 55.4 °F - 26.6 °F 33% 30.11 in 10.0 mi WSW 9.2 mph - N/A   Scattered Clouds
2:35 PM 55.4 °F - 26.6 °F 33% 30.09 in 10.0 mi NW 4.6 mph - N/A   Scattered Clouds
2:55 PM 55.4 °F - 26.6 °F 33% 30.09 in 10.0 mi West 6.9 mph 16.1 mph N/A   Mostly Cloudy
3:15 PM 55.4 °F - 24.8 °F 31% 30.09 in 10.0 mi West 10.4 mph 18.4 mph N/A   Mostly Cloudy
3:35 PM 59.0 °F - 23.0 °F 25% 30.08 in 10.0 mi West 13.8 mph 18.4 mph N/A   Overcast
3:55 PM 59.0 °F - 23.0 °F 25% 30.07 in 10.0 mi SW 17.3 mph 23.0 mph N/A   Overcast
4:15 PM 59.0 °F - 23.0 °F 25% 30.07 in 10.0 mi West 15.0 mph 28.8 mph N/A   Overcast
4:35 PM 57.2 °F - 23.0 °F 27% 30.06 in 10.0 mi West 12.7 mph 20.7 mph N/A   Overcast
4:55 PM 55.4 °F - 23.0 °F 29% 30.07 in 10.0 mi West 13.8 mph 19.6 mph N/A   Mostly Cloudy
5:15 PM 55.4 °F - 23.0 °F 29% 30.07 in 10.0 mi West 13.8 mph 20.7 mph N/A   Overcast
5:35 PM 53.6 °F - 24.8 °F 33% 30.07 in 10.0 mi West 10.4 mph - N/A   Overcast
5:55 PM 53.6 °F - 24.8 °F 33% 30.06 in 10.0 mi West 12.7 mph - N/A   Mostly Cloudy
6:15 PM 53.6 °F - 24.8 °F 33% 30.06 in 10.0 mi West 13.8 mph - N/A   Scattered Clouds
6:35 PM 53.6 °F - 24.8 °F 33% 30.06 in 10.0 mi West 8.1 mph - N/A   Clear
6:55 PM 53.6 °F - 24.8 °F 33% 30.05 in 10.0 mi West 4.6 mph - N/A   Clear
7:15 PM 51.8 °F - 24.8 °F 35% 30.05 in 10.0 mi WSW 6.9 mph - N/A   Clear
7:35 PM 50.0 °F - 23.0 °F 35% 30.04 in 10.0 mi West 6.9 mph - N/A   Clear
7:55 PM 50.0 °F - 23.0 °F 35% 30.04 in 10.0 mi West 5.8 mph - N/A   Scattered Clouds
8:15 PM 48.2 °F - 23.0 °F 37% 30.03 in 10.0 mi West 4.6 mph - N/A   Scattered Clouds
8:35 PM 46.4 °F 44.3 °F 23.0 °F 40% 30.03 in 10.0 mi West 4.6 mph - N/A   Clear
8:55 PM 46.4 °F 45.2 °F 24.8 °F 43% 30.03 in 10.0 mi West 3.5 mph - N/A   Mostly Cloudy
9:15 PM 44.6 °F - 26.6 °F 49% 30.03 in 10.0 mi Calm Calm - N/A   Overcast
9:35 PM 44.6 °F 42.2 °F 26.6 °F 49% 30.03 in 10.0 mi NW 4.6 mph - N/A   Overcast
9:55 PM 44.6 °F 43.1 °F 26.6 °F 49% 30.03 in 10.0 mi NW 3.5 mph - N/A   Mostly Cloudy
10:15 PM 42.8 °F - 26.6 °F 53% 30.03 in 10.0 mi Calm Calm - N/A   Overcast
10:35 PM 42.8 °F - 26.6 °F 53% 30.03 in 10.0 mi Calm Calm - N/A   Overcast
10:55 PM 42.8 °F - 26.6 °F 53% 30.03 in 10.0 mi Calm Calm - N/A   Overcast
11:15 PM 41.0 °F 39.0 °F 26.6 °F 57% 30.03 in 10.0 mi West 3.5 mph - N/A   Overcast
11:35 PM 41.0 °F - 28.4 °F 61% 30.03 in 10.0 mi Calm Calm - N/A   Overcast
11:55 PM 41.0 °F - 28.4 °F 61% 30.03 in 10.0 mi Calm Calm - N/A   Overcast